Change the Weather History Date:

Friday, January 17, 2014

  Actual Average (KAQP) Record (KAQP)
Temperature  
Mean Temperature 10 °F -  
Max Temperature 24 °F 17 °F 39 °F (2015)
Min Temperature -2 °F 1 °F -23 °F (1997)
Degree Days  
Heating Degree Days 54    
Moisture  
Dew Point -2 °F    
Average Humidity 65    
Maximum Humidity 86    
Minimum Humidity 41    
Precipitation  
Precipitation 0.00 in - - ()
Sea Level Pressure  
Sea Level Pressure 29.97 in    
Wind  
Wind Speed 11 mph (WSW)    
Max Wind Speed 21 mph    
Max Gust Speed 28 mph    
Visibility 10 miles    
Events Snow    
Averages and records for this station are not official NWS values.
T = Trace of Precipitation, MM = Missing Value Source: NWS Daily Summary

Daily Weather History Graph

Daily Weather History Graph

Search for Another Location

Airport or City:

Trip Planner

Search our weather history database for the weather conditions in past years. The results will help you decide how hot, cold, wet, or windy it might be!

Date:

Astronomy

Jan. 17, 2014 Rise Set
Actual Time 8:00 AM CST 5:12 PM CST
Civil Twilight 7:27 AM CST 5:44 PM CST
Nautical Twilight 6:50 AM CST 6:21 PM CST
Astronomical Twilight 6:15 AM CST 6:56 PM CST
Moon 7:06 PM CST (1/17) 8:22 AM CST (1/17)
Length of Visible Light 10h 17m
Length of Day
9h 11m
Full, 98% of the Moon is Illuminated
Jan 17
Full
Jan 23
Last Quarter
Jan 30
New
Feb 6
First Quarter
Feb 14
Full

Hourly Weather History & Observations

Time (CST) Temp. Windchill Dew Point Humidity Pressure Visibility Wind Dir Wind Speed Gust Speed Precip Events Conditions
12:14 AM 3.2 °F -18.1 °F -7.6 °F 61% 30.07 in 10.0 mi NNW 20.7 mph 26.5 mph N/A   Clear
12:34 AM 1.4 °F -18.2 °F -7.6 °F 66% 30.07 in 10.0 mi NNW 16.1 mph 21.9 mph N/A   Clear
12:54 AM 1.4 °F -19.9 °F -7.6 °F 66% 30.07 in 10.0 mi NNW 19.6 mph 27.6 mph N/A   Clear
1:14 AM 1.4 °F -18.2 °F -7.6 °F 66% 30.08 in 10.0 mi NW 16.1 mph 26.5 mph N/A   Clear
1:34 AM 1.4 °F -17.6 °F -7.6 °F 66% 30.08 in 10.0 mi NNW 15.0 mph 23.0 mph N/A   Clear
1:54 AM 1.4 °F -18.2 °F -7.6 °F 66% 30.08 in 10.0 mi NNW 16.1 mph 25.3 mph N/A   Clear
2:14 AM 1.4 °F -16.1 °F -7.6 °F 66% 30.08 in 10.0 mi NNW 12.7 mph 23.0 mph N/A   Clear
2:34 AM 1.4 °F -16.9 °F -9.4 °F 61% 30.09 in 10.0 mi NNW 13.8 mph 21.9 mph N/A   Clear
2:54 AM -0.4 °F -19.9 °F -9.4 °F 66% 30.09 in 10.0 mi NNW 15.0 mph 20.7 mph N/A   Clear
3:14 AM -0.4 °F -20.5 °F -9.4 °F 66% 30.09 in 10.0 mi NNW 16.1 mph 20.7 mph N/A   Clear
3:34 AM -0.4 °F -19.2 °F -9.4 °F 66% 30.09 in 10.0 mi NNW 13.8 mph 21.9 mph N/A   Clear
3:54 AM -0.4 °F -19.9 °F -9.4 °F 66% 30.10 in 10.0 mi NNW 15.0 mph 21.9 mph N/A   Clear
4:14 AM -0.4 °F -19.2 °F -9.4 °F 66% 30.09 in 10.0 mi NNW 13.8 mph - N/A   Clear
4:34 AM -0.4 °F -19.9 °F -9.4 °F 66% 30.09 in 10.0 mi NNW 15.0 mph - N/A   Clear
4:54 AM -0.4 °F -18.4 °F -9.4 °F 66% 30.09 in 10.0 mi NW 12.7 mph 17.3 mph N/A   Clear
5:14 AM -2.2 °F -18.9 °F -9.4 °F 71% 30.09 in 10.0 mi NW 10.4 mph - N/A   Clear
5:34 AM -2.2 °F -18.9 °F -9.4 °F 71% 30.10 in 10.0 mi NW 10.4 mph - N/A   Clear
5:54 AM -2.2 °F -19.9 °F -9.4 °F 71% 30.10 in 10.0 mi NNW 11.5 mph - N/A   Clear
6:14 AM -2.2 °F -19.9 °F -9.4 °F 71% 30.11 in 10.0 mi NNW 11.5 mph 17.3 mph N/A   Clear
6:34 AM -2.2 °F -18.0 °F -9.4 °F 71% 30.11 in 10.0 mi NW 9.2 mph - N/A   Clear
6:54 AM -2.2 °F -14.2 °F -11.2 °F 66% 30.11 in 10.0 mi NW 5.8 mph - N/A   Clear
7:13 AM -2.2 °F -16.8 °F -9.4 °F 71% 30.12 in 10.0 mi NW 8.1 mph - N/A   Clear
7:34 AM -2.2 °F -15.6 °F -11.2 °F 66% 30.11 in 10.0 mi NW 6.9 mph - N/A   Clear
7:54 AM -2.2 °F -15.6 °F -9.4 °F 71% 30.10 in 10.0 mi NW 6.9 mph - N/A   Clear
8:14 AM -2.2 °F -15.6 °F -9.4 °F 71% 30.10 in 10.0 mi WNW 6.9 mph - N/A   Clear
8:34 AM -2.2 °F -15.6 °F -9.4 °F 71% 30.09 in 10.0 mi NW 6.9 mph - N/A   Clear
8:54 AM -2.2 °F -10.4 °F -9.4 °F 71% 30.10 in 10.0 mi WNW 3.5 mph - N/A   Clear
9:14 AM -2.2 °F -12.5 °F -9.4 °F 71% 30.09 in 10.0 mi WNW 4.6 mph - N/A   Clear
9:34 AM -0.4 °F -8.3 °F -9.4 °F 66% 30.08 in 10.0 mi WNW 3.5 mph - N/A   Clear
9:54 AM 1.4 °F -9.9 °F -9.4 °F 61% 30.09 in 10.0 mi West 5.8 mph - N/A   Clear
10:14 AM 1.4 °F -11.3 °F -7.6 °F 66% 30.10 in 10.0 mi West 6.9 mph - N/A   Clear
10:34 AM 3.2 °F -9.1 °F -7.6 °F 61% 30.10 in 10.0 mi WNW 6.9 mph - N/A   Clear
10:54 AM 3.2 °F -6.2 °F -5.8 °F 66% 30.10 in 10.0 mi WNW 4.6 mph - N/A   Clear
11:14 AM 5.0 °F -4.1 °F -5.8 °F 61% 30.10 in 10.0 mi West 4.6 mph - N/A   Clear
11:33 AM 6.8 °F -0.1 °F -5.8 °F 56% 30.08 in 10.0 mi West 3.5 mph - N/A   Clear
11:54 AM 8.6 °F 2.0 °F -5.8 °F 52% 30.08 in 10.0 mi West 3.5 mph - N/A   Clear
12:14 PM 8.6 °F - -5.8 °F 52% 30.06 in 10.0 mi Calm Calm - N/A   Clear
12:33 PM 8.6 °F - -4.0 °F 57% 30.04 in 10.0 mi Calm Calm - N/A   Clear
12:54 PM 10.4 °F - -2.2 °F 57% 30.04 in 10.0 mi Calm Calm - N/A   Clear
1:14 PM 10.4 °F - -4.0 °F 52% 30.02 in 10.0 mi Calm Calm - N/A   Clear
1:33 PM 10.4 °F 2.2 °F -5.8 °F 48% 30.01 in 10.0 mi South 4.6 mph - N/A   Clear
1:54 PM 12.2 °F 4.3 °F -7.6 °F 41% 30.01 in 10.0 mi SW 4.6 mph - N/A   Clear
2:12 PM 12.2 °F 6.1 °F -5.8 °F 45% 29.99 in 10.0 mi South 3.5 mph - N/A   Clear
2:34 PM 14.0 °F 3.9 °F -4.0 °F 45% 29.98 in 10.0 mi South 6.9 mph - N/A   Clear
2:54 PM 14.0 °F 3.9 °F -2.2 °F 49% 29.97 in 10.0 mi South 6.9 mph - N/A   Clear
3:14 PM 15.8 °F 7.2 °F -0.4 °F 49% 29.96 in 10.0 mi SSE 5.8 mph - N/A   Clear
3:33 PM 15.8 °F 7.2 °F 1.4 °F 53% 29.96 in 10.0 mi SSE 5.8 mph - N/A   Clear
3:54 PM 15.8 °F 7.2 °F 1.4 °F 53% 29.95 in 10.0 mi SSE 5.8 mph - N/A   Clear
4:14 PM 15.8 °F 8.6 °F 1.4 °F 53% 29.95 in 10.0 mi SSE 4.6 mph - N/A   Clear
4:34 PM 15.8 °F 6.1 °F 3.2 °F 58% 29.95 in 10.0 mi SE 6.9 mph - N/A   Scattered Clouds
4:54 PM 15.8 °F 10.2 °F 3.2 °F 58% 29.94 in 10.0 mi SSE 3.5 mph - N/A   Scattered Clouds
5:14 PM 15.8 °F 8.6 °F 3.2 °F 58% 29.93 in 10.0 mi SSE 4.6 mph - N/A   Clear
5:34 PM 15.8 °F 8.6 °F 5.0 °F 62% 29.92 in 10.0 mi SSE 4.6 mph - N/A   Mostly Cloudy
5:54 PM 15.8 °F 7.2 °F 6.8 °F 68% 29.89 in 10.0 mi South 5.8 mph - N/A   Scattered Clouds
6:13 PM 15.8 °F 8.6 °F 6.8 °F 68% 29.88 in 10.0 mi SSE 4.6 mph - N/A   Clear
6:34 PM 15.8 °F 6.1 °F 6.8 °F 68% 29.86 in 10.0 mi SSE 6.9 mph - N/A   Scattered Clouds
6:54 PM 17.6 °F 7.3 °F 6.8 °F 63% 29.85 in 10.0 mi SSE 8.1 mph - N/A   Scattered Clouds
7:13 PM 17.6 °F 6.4 °F 8.6 °F 68% 29.84 in 10.0 mi SE 9.2 mph - N/A   Clear
7:34 PM 15.8 °F 6.1 °F 8.6 °F 73% 29.83 in 10.0 mi SSE 6.9 mph - N/A   Mostly Cloudy
7:54 PM 15.8 °F 3.4 °F 8.6 °F 73% 29.80 in 10.0 mi SE 10.4 mph - N/A   Overcast
8:14 PM 15.8 °F 4.2 °F 10.4 °F 79% 29.78 in 10.0 mi SE 9.2 mph - N/A Snow Light Snow
8:34 PM 17.6 °F 5.7 °F 10.4 °F 73% 29.76 in 7.0 mi SE 10.4 mph - N/A Snow Light Snow
8:54 PM 17.6 °F 6.4 °F 10.4 °F 73% 29.74 in 7.0 mi SE 9.2 mph - N/A Snow Light Snow
9:14 PM 17.6 °F 5.7 °F 12.2 °F 79% 29.71 in 10.0 mi SE 10.4 mph - N/A Snow Light Snow
9:34 PM 17.6 °F 5.7 °F 12.2 °F 79% 29.69 in 10.0 mi SE 10.4 mph - N/A Snow Light Snow
9:54 PM 17.6 °F 5.0 °F 12.2 °F 79% 29.67 in 7.0 mi SE 11.5 mph - N/A Snow Light Snow
10:13 PM 17.6 °F 5.0 °F 14.0 °F 86% 29.65 in 7.0 mi SE 11.5 mph - N/A Snow Light Snow
10:34 PM 19.4 °F 6.0 °F 15.8 °F 86% 29.61 in 10.0 mi SE 13.8 mph - N/A   Overcast
10:54 PM 19.4 °F 6.6 °F 15.8 °F 86% 29.59 in 10.0 mi SE 12.7 mph - N/A Snow Light Snow
11:14 PM 19.4 °F 7.2 °F 15.8 °F 86% 29.57 in 10.0 mi SE 11.5 mph - N/A   Overcast
11:34 PM 23.0 °F 11.7 °F 17.6 °F 80% 29.55 in 10.0 mi SSE 11.5 mph - N/A   Overcast
11:53 PM 24.8 °F 14.0 °F 17.6 °F 74% 29.53 in 10.0 mi South 11.5 mph - N/A   Overcast